Stations météo

réclame
Mon MeteoGroup
Grenoble/St.Geoirs, France (7486): Température de l'air & dewpoint: 19.08.2019 18:00:00 - 25.08.2019 18:00:00 (CEST)Grenoble/St.Geoirs, France (7486): Température de l'air 5cm: 19.08.2019 18:00:00 - 25.08.2019 18:00:00 (CEST)Grenoble/St.Geoirs, France (7486): Température de l'air -20cm & Température de l'air -100cm: 19.08.2019 18:00:00 - 25.08.2019 18:00:00 (CEST)Grenoble/St.Geoirs, France (7486): Vitesse du vent & gusts: 19.08.2019 18:00:00 - 25.08.2019 18:00:00 (CEST)Grenoble/St.Geoirs, France (7486): Direction du vent: 19.08.2019 18:00:00 - 25.08.2019 18:00:00 (CEST)Grenoble/St.Geoirs, France (7486): reduced air pressure: 19.08.2019 18:00:00 - 25.08.2019 18:00:00 (CEST)Grenoble/St.Geoirs, France (7486): visibility: 19.08.2019 18:00:00 - 25.08.2019 18:00:00 (CEST)Grenoble/St.Geoirs, France (7486): Ensoleillement: 19.08.2019 18:00:00 - 25.08.2019 18:00:00 (CEST)Grenoble/St.Geoirs, France (7486): Quantités de précipitations: 19.08.2019 18:00:00 - 25.08.2019 18:00:00 (CEST)
Date & Time tt [°C] td [°C] tt 5cm [°C] tt -20cm [°C] tt -100cm [°C] ff [km/h] ff [knt] fx [km/h] fx [knt] dd ppp [hPa] vv [km] sd [min] rr [mm]
25.08.2019 18:00:00 29,5 10,6 33,2 21,2 19,0 12 6 26 14 N 1016,0 40 60 0,0
25.08.2019 17:00:00 29,8 10,8 34,1 21,0 19,1 14 8 28 15 N 1016,1 43 60 0,0
25.08.2019 16:00:00 30,0 9,5 35,0 20,8 19,0 15 8 28 15 N 1016,2 39 60 0,0
25.08.2019 15:00:00 29,5 12,4 35,2 20,6 19,0 11 6 20 11 ENE 1016,5 17 60 0,0
25.08.2019 14:00:00 28,7 12,6 33,9 20,5 19,0 9 5 16 8 ESE 1016,9 55 60 0,0
25.08.2019 13:00:00 26,9 12,2 31,4 20,4 19,0 8 4 18 10 E 1017,5 20 60 0,0
25.08.2019 12:00:00 25,6 13,1 28,6 20,5 19,0 8 4 16 9 E 1018,0 32 60 0,0
25.08.2019 11:00:00 23,7 13,0 25,4 20,5 19,0 12 6 21 12 E 1018,6 20 60 0,0
25.08.2019 10:00:00 21,6 11,9 22,2 20,7 19,0 17 9 24 13 E 1018,7 25 60 0,0
25.08.2019 09:00:00 19,2 11,5 18,7 20,8 19,0 19 10 25 13 E 1018,8 30 60 0,0
25.08.2019 08:00:00 16,1 11,7 11,6 20,9 19,0 14 7 18 10 E 1019,1 33 47 0,0
25.08.2019 07:00:00 13,5 9,9 10,9 21,0 19,0 12 6 16 8 E 1019,4 30 0 0,0
25.08.2019 06:00:00 13,4 10,2 11,6 21,2 19,0 13 7 22 12 E 1019,3 31 0 0,0
25.08.2019 05:00:00 14,5 10,7 12,4 21,3 19,0 16 9 22 12 E 1019,0 31 0 0,0
25.08.2019 04:00:00 13,9 10,5 12,4 21,4 19,0 15 8 17 9 E 1019,2 28 0 0,0
25.08.2019 03:00:00 14,5 10,9 13,2 21,5 19,0 15 8 20 11 E 1019,1 31 0 0,0
25.08.2019 02:00:00 15,4 11,0 13,9 21,6 19,0 16 9 19 10 E 1018,9 34 0 0,0
25.08.2019 01:00:00 16,6 12,1 14,1 21,7 19,0 15 8 24 13 E 1018,7 27 0 0,0
25.08.2019 00:00:00 15,8 12,4 14,2 21,7 19,0 14 8 17 9 E 1018,5 29 0 0,0
24.08.2019 23:00:00 17,5 14,0 14,6 21,7 19,0 11 6 14 8 E 1018,2 23 0 0,0
24.08.2019 22:00:00 17,9 15,0 15,6 21,7 19,0 10 6 13 7 E 1017,8 21 0 0,0
24.08.2019 21:00:00 21,3 14,9 16,2 21,5 19,0 8 5 14 8 E 1016,9 32 0 0,0
24.08.2019 20:00:00 26,4 15,1 23,7 21,4 19,0 9 5 11 6 NE 1016,1 51 57 0,0
24.08.2019 19:00:00 29,0 12,0 32,2 21,1 19,0 5 3 13 7 NNE 1016,0 46 50 0,0
24.08.2019 18:00:00 29,3 12,7 34,0 20,9 19,0 6 3 15 8 NNE 1016,2 36 60 0,0
24.08.2019 17:00:00 30,2 13,0 36,5 20,6 19,0 4 2 18 10 WSW 1016,4 20 60 0,0
24.08.2019 16:00:00 29,6 15,3 35,7 20,4 19,0 3 2 15 8 W 1016,7 20 60 0,0
24.08.2019 15:00:00 28,5 16,4 35,1 20,2 19,0 4 2 19 11 W 1017,2 14 60 0,0
24.08.2019 14:00:00 27,8 17,0 33,2 20,0 19,0 6 3 15 8 WNW 1017,6 25 60 0,0
24.08.2019 13:00:00 26,6 17,7 30,7 20,0 19,0 5 3 16 8 E 1018,1 20 60 0,0
24.08.2019 12:00:00 25,0 17,0 28,0 20,0 18,9 8 4 19 10 E 1018,9 23 60 0,0
24.08.2019 11:00:00 23,1 16,4 25,0 20,0 18,9 12 6 22 12 ENE 1019,4 14 60 0,0
24.08.2019 10:00:00 21,0 16,6 22,0 20,2 19,0 15 8 26 14 E 1019,8 11 60 0,0
24.08.2019 09:00:00 18,7 15,8 18,1 20,3 19,0 19 10 27 15 ENE 1020,1 8 60 0,0
24.08.2019 08:00:00 16,6 14,8 13,4 20,4 18,9 18 10 24 13 E 1020,4 8 48 0,0
24.08.2019 07:00:00 14,4 13,3 12,1 20,5 18,9 15 8 18 10 E 1020,8 9 0 0,0
24.08.2019 06:00:00 13,6 12,5 12,2 20,6 18,9 12 6 19 10 E 1021,0 8 0 0,0
24.08.2019 05:00:00 14,6 13,6 12,2 20,8 19,0 13 7 18 10 ENE 1021,0 9 0 0,0
24.08.2019 04:00:00 14,3 13,2 11,7 20,9 18,9 11 6 18 10 E 1021,1 9 0 0,0
24.08.2019 03:00:00 13,8 12,7 10,7 21,0 19,0 8 5 10 6 E 1021,2 7 0 0,2
24.08.2019 02:00:00 15,4 13,9 11,8 21,1 18,9 3 1 13 7 SE 1021,0 7 0 0,0
24.08.2019 01:00:00 15,7 14,1 12,3 21,1 19,0 6 3 10 5 E 1020,8 13 0 0,0
24.08.2019 00:00:00 15,5 13,7 12,9 21,2 19,0 8 4 12 7 E 1020,7 23 0 0,0
23.08.2019 23:00:00 17,0 14,6 14,1 21,2 19,0 6 4 14 7 ESE 1020,4 23 0 0,0
23.08.2019 22:00:00 18,9 15,2 15,6 21,1 19,0 9 5 12 6 SSE 1020,1 29 0 0,0
23.08.2019 21:00:00 20,7 15,0 18,3 21,0 19,0 9 5 14 7 NNE 1019,6 41 10 0,0
23.08.2019 20:00:00 23,8 15,0 23,5 20,8 18,9 9 5 18 10 NNW 1019,1 46 60 0,0
23.08.2019 19:00:00 25,3 14,7 28,0 20,6 19,0 13 7 32 17 NNW 1018,6 41 50 0,0
23.08.2019 18:00:00 25,7 15,4 30,5 20,4 19,0 9 5 27 15 N 1018,8 44 60 0,0
23.08.2019 17:00:00 25,7 15,1 31,6 20,1 19,0 11 6 30 16 NNE 1018,9 30 60 0,0
23.08.2019 16:00:00 25,7 16,0 31,6 19,9 19,0 9 5 38 21 NNW 1019,3 30 60 0,0
23.08.2019 15:00:00 25,0 16,2 31,3 19,7 19,0 11 6 25 14 NE 1019,8 36 57 0,0
23.08.2019 14:00:00 24,2 14,9 29,1 19,5 19,0 8 5 20 11 N 1020,5 38 57 0,0
23.08.2019 13:00:00 23,4 14,7 25,7 19,5 19,0 7 4 21 11 N 1021,0 42 49 0,0
23.08.2019 12:00:00 23,0 15,6 27,3 19,4 19,0 8 5 21 11 NNE 1021,3 42 60 0,0
23.08.2019 11:00:00 22,0 14,9 26,0 19,5 19,0 9 5 19 10 NE 1021,5 46 60 0,0
23.08.2019 10:00:00 20,6 15,4 24,3 19,6 19,0 4 2 8 4 SE 1022,1 19 60 0,0
23.08.2019 09:00:00 17,1 14,7 18,8 19,7 19,0 3 1 7 4 WSW 1022,6 16 60 0,0
23.08.2019 08:00:00 14,8 13,7 10,5 19,8 19,0 3 2 9 5 S 1022,8 11 49 0,0
23.08.2019 07:00:00 13,3 11,7 10,8 19,9 19,0 8 4 12 7 ESE 1023,0 11 0 0,0
23.08.2019 06:00:00 14,5 13,0 12,0 20,0 19,0 7 4 12 7 ESE 1022,7 12 0 0,0
23.08.2019 05:00:00 14,7 12,7 12,9 20,1 19,0 10 5 17 9 E 1022,6 10 0 0,0
23.08.2019 04:00:00 15,6 12,9 14,1 20,2 19,0 11 6 29 16 E 1022,6 15 0 0,0
23.08.2019 03:00:00 16,1 14,8 10,0 20,3 19,0 19 11 30 16 NE 1022,5 24 0 0,0
23.08.2019 02:00:00 14,3 13,0 10,7 20,4 19,0 5 3 10 5 E 1023,2 13 0 0,2
23.08.2019 01:00:00 14,1 12,5 12,4 20,4 19,0 8 5 11 6 E 1023,6 15 0 0,0
23.08.2019 00:00:00 15,6 13,6 13,4 20,4 19,0 6 4 14 8 E 1023,5 17 0 0,0
22.08.2019 23:00:00 17,1 14,6 14,6 20,4 19,1 7 4 11 6 SE 1023,4 23 0 0,0
22.08.2019 22:00:00 18,3 14,2 14,7 20,4 19,1 5 3 13 7 E 1023,3 32 0 0,0
22.08.2019 21:00:00 19,8 15,0 15,7 20,2 19,1 4 2 16 9 NNW 1022,7 20 12 0,0
22.08.2019 20:00:00 21,8 14,9 21,9 20,0 19,0 9 5 18 10 NNW 1022,0 20 60 0,0
22.08.2019 19:00:00 22,9 15,0 25,6 19,8 19,1 14 8 22 12 NNW 1021,4 34 51 0,0
22.08.2019 18:00:00 23,3 14,8 26,7 19,6 19,1 12 7 25 13 NNW 1021,6 49 50 0,0
22.08.2019 17:00:00 23,4 15,4 28,9 19,3 19,1 15 8 27 15 N 1021,5 27 60 0,0
22.08.2019 16:00:00 23,4 14,7 26,3 19,1 19,1 10 5 19 10 N 1021,6 22 46 0,0
22.08.2019 15:00:00 22,2 13,8 25,5 18,9 19,1 10 5 22 12 N 1022,4 40 42 0,0
22.08.2019 14:00:00 22,3 14,2 26,9 18,8 19,1 10 6 23 12 NNE 1022,4 38 55 0,0
22.08.2019 13:00:00 21,0 13,7 26,1 18,7 19,1 13 7 22 12 N 1022,9 54 58 0,0
22.08.2019 12:00:00 20,2 13,9 24,7 18,7 19,1 13 7 24 13 N 1023,0 34 60 0,0
22.08.2019 11:00:00 18,7 13,8 18,8 18,8 19,1 6 3 16 8 N 1023,2 38 35 0,0
22.08.2019 10:00:00 15,5 13,3 16,8 18,9 19,1 5 3 9 5 SW 1023,4 30 0 0,0
22.08.2019 09:00:00 14,1 12,8 11,9 19,0 19,2 3 2 10 5 SW 1023,2 33 24 0,0
22.08.2019 08:00:00 12,1 11,2 9,1 19,1 19,2 0 0 10 5 N 1023,4 28 0 0,0
22.08.2019 07:00:00 11,5 10,4 9,0 19,3 19,2 4 2 9 5 SE 1023,1 16 0 0,0
22.08.2019 06:00:00 11,7 10,6 8,8 19,4 19,2 3 2 9 5 SE 1022,6 17 0 0,0
22.08.2019 05:00:00 12,2 11,1 9,2 19,5 19,2 3 2 8 5 SSE 1022,4 15 0 0,0
22.08.2019 04:00:00 12,6 11,5 9,6 19,5 19,2 4 2 7 4 SW 1022,3 17 0 0,0
22.08.2019 03:00:00 12,7 11,3 10,2 19,6 19,2 4 2 11 6 NNE 1022,4 25 0 0,0
22.08.2019 02:00:00 13,4 12,0 11,1 19,7 19,2 9 5 11 6 ESE 1022,7 34 0 0,0
22.08.2019 01:00:00 13,9 12,5 12,0 19,7 19,2 10 5 13 7 ENE 1022,9 35 0 0,2
22.08.2019 00:00:00 13,4 11,8 11,8 19,7 19,2 8 5 11 6 E 1023,2 20 0 0,0
21.08.2019 23:00:00 14,5 12,2 12,6 19,7 19,3 7 4 12 6 E 1023,0 28 0 0,0
21.08.2019 22:00:00 16,2 13,9 14,5 19,6 19,3 8 4 9 5 NNE 1022,8 30 0 0,0
21.08.2019 21:00:00 17,7 13,8 14,9 19,5 19,3 6 4 11 6 NE 1022,3 37 5 0,0
21.08.2019 20:00:00 19,1 13,7 19,1 19,4 19,3 8 4 21 11 NNE 1021,9 52 6 0,0
21.08.2019 19:00:00 19,7 13,2 21,0 19,2 19,3 16 8 26 14 N 1021,6 41 43 0,0
21.08.2019 18:00:00 19,8 12,8 22,2 19,1 19,3 14 8 22 12 N 1021,9 45 49 0,0
21.08.2019 17:00:00 19,6 12,8 22,3 18,9 19,3 13 7 24 13 N 1022,0 15 24 0,0
21.08.2019 16:00:00 19,6 12,8 22,7 18,7 19,3 11 6 24 13 NNE 1022,3 44 27 0,0
21.08.2019 15:00:00 19,1 12,4 20,7 18,6 19,3 16 8 27 15 N 1022,7 60 16 0,0
21.08.2019 14:00:00 18,3 12,5 20,7 18,5 19,4 15 8 31 17 N 1022,8 37 23 0,0
21.08.2019 13:00:00 17,5 12,2 20,1 18,5 19,4 16 9 33 18 N 1023,2 34 13 0,0
21.08.2019 12:00:00 17,5 12,2 19,2 18,5 19,4 19 10 41 22 NNE 1023,9 48 39 0,0
21.08.2019 11:00:00 16,4 11,5 16,8 18,6 19,4 16 9 28 15 NE 1024,1 43 34 0,0
21.08.2019 10:00:00 15,3 11,1 16,0 18,7 19,4 16 9 26 14 ENE 1024,2 46 33 0,0
21.08.2019 09:00:00 14,7 11,5 13,5 18,8 19,4 11 6 19 11 NE 1024,3 33 60 0,0
21.08.2019 08:00:00 12,4 11,0 9,2 19,0 19,4 11 6 16 9 N 1024,8 18 32 0,0
21.08.2019 07:00:00 10,3 9,4 6,5 19,1 19,4 9 5 13 7 NNE 1025,3 22 0 0,0
21.08.2019 06:00:00 10,2 9,1 8,2 19,2 19,5 8 4 17 9 N 1025,1 14 0 0,0
21.08.2019 05:00:00 10,9 9,8 9,1 19,3 19,5 7 4 14 7 N 1025,0 11 0 0,0
21.08.2019 04:00:00 11,8 10,7 9,6 19,4 19,4 12 7 18 10 N 1025,3 13 0 0,0
21.08.2019 03:00:00 11,1 10,0 8,4 19,5 19,5 8 4 10 6 N 1025,5 9 0 0,0
21.08.2019 02:00:00 12,1 10,7 8,8 19,6 19,5 5 3 16 8 NNE 1025,5 17 0 0,0
21.08.2019 01:00:00 13,0 11,4 11,5 19,7 19,5 8 5 13 7 NE 1025,5 16 0 0,0
21.08.2019 00:00:00 13,3 12,0 12,2 19,8 19,5 8 5 15 8 N 1026,0 23 0 0,0
20.08.2019 23:00:00 13,4 12,1 10,6 19,9 19,5 6 3 14 8 E 1026,0 37 0 0,2
20.08.2019 22:00:00 13,6 11,6 11,8 19,9 19,5 8 5 23 12 N 1025,8 60 0 0,0
20.08.2019 21:00:00 14,4 12,1 13,3 19,9 19,5 15 8 22 12 N 1025,2 60 7 0,0
20.08.2019 20:00:00 15,3 12,8 14,5 20,0 19,5 16 9 28 15 NE 1024,7 36 21 0,2
20.08.2019 19:00:00 15,2 13,0 14,7 20,0 19,5 10 6 22 12 NE 1024,9 17 0 0,6
20.08.2019 18:00:00 15,4 13,8 15,1 20,1 19,5 14 8 21 11 WNW 1025,3 18 0 1,2
20.08.2019 17:00:00 15,6 13,6 15,2 20,1 19,5 5 3 10 5 NE 1024,7 6 0 1,6
20.08.2019 16:00:00 15,8 14,5 15,7 20,2 19,5 4 2 15 8 WSW 1024,6 11 0 1,4
20.08.2019 15:00:00 15,5 14,0 15,1 20,3 19,5 11 6 23 13 N 1023,9 7 0 3,0
20.08.2019 14:00:00 15,6 14,3 15,2 20,4 19,5 9 5 17 9 NNE 1022,5 10 0 1,6
20.08.2019 13:00:00 15,3 14,0 15,1 20,5 19,5 5 3 16 9 WNW 1022,7 21 0 0,4
20.08.2019 12:00:00 15,1 13,8 14,7 20,6 19,5 5 3 16 9 W 1022,7 3,5 0 2,2
20.08.2019 11:00:00 15,0 13,4 14,8 20,7 19,5 8 4 15 8 W 1022,1 17 0 0,8
20.08.2019 10:00:00 14,7 13,6 14,6 20,8 19,5 3 1 9 5 W 1021,8 13 0 2,0
20.08.2019 09:00:00 14,6 13,6 14,4 20,9 19,5 3 1 11 6 S 1021,8 2,9 0 2,6
20.08.2019 08:00:00 14,6 13,6 14,2 21,0 19,5 7 4 13 7 SSW 1021,7 2,8 0 5,3
20.08.2019 07:00:00 14,6 13,3 13,9 21,1 19,5 8 4 14 8 W 1021,3 1,5 0 6,8
20.08.2019 06:00:00 15,2 13,2 14,6 21,3 19,5 7 4 15 8 NNW 1020,0 16 0 0,2
20.08.2019 05:00:00 15,7 14,4 15,4 21,3 19,5 3 2 10 5 W 1020,1 15 0 0,0
20.08.2019 04:00:00 15,9 14,6 15,4 21,4 19,5 6 3 11 6 WNW 1020,2 20 0 0,0
20.08.2019 03:00:00 15,9 14,4 15,1 21,5 19,5 8 4 13 7 E 1020,3 29 0 0,0
20.08.2019 02:00:00 15,9 13,9 15,1 21,6 19,5 4 2 13 7 W 1021,5 7 0 1,4
20.08.2019 01:00:00 16,4 14,4 15,4 21,6 19,5 10 5 13 7 WNW 1021,1 40 0 0,2
20.08.2019 00:00:00 16,6 13,5 15,5 21,7 19,5 6 4 11 6 WNW 1021,6 47 0 0,0
19.08.2019 23:00:00 17,0 13,5 16,8 21,8 19,5 7 4 10 5 NNW 1021,0 57 0 0,0
19.08.2019 22:00:00 17,2 13,5 17,0 21,8 19,5 4 2 9 5 NNW 1021,1 59 0 0,0
19.08.2019 21:00:00 17,2 13,1 16,9 21,8 19,5 4 2 15 8 N 1020,5 59 0 0,0
19.08.2019 20:00:00 17,3 13,2 17,3 21,8 19,5 8 4 16 9 N 1020,4 43 0 0,0
19.08.2019 19:00:00 17,3 13,4 17,6 21,7 19,5 9 5 18 10 NNW 1020,2 51 0 0,0
19.08.2019 18:00:00 17,8 13,5 18,1 21,7 19,5 10 5 30 16 NNW 1019,8 42 0 0,0

tt = Température de l'air
td = dewpoint
tt 5cm = Température de l'air 5cm
tt -20cm = Température de l'air -20cm
tt -100cm = Température de l'air -100cm
ff = Vitesse du vent
fx = gusts
dd = Direction du vent
ppp = reduced air pressure
vv = visibility
sd = Ensoleillement
rr = Quantités de précipitations

stations d'obs. à proximité